• MPC Preparation (Info)

  • MPEC 2019-M96 : 2014 SS303

    The following Minor Planet Electronic Circular may be linked-to from your own Web pages, but must not otherwise be redistributed electronically.

    A form allowing access to any MPEC is at the bottom of this page.


    Read MPEC 2019-M95 Read MPEC 2019-M97


    M.P.E.C. 2019-M96                                Issued 2019 June 29, 00:07 UT  
    
         The Minor Planet Electronic Circulars contain information on unusual
             minor planets and routine data on comets.  They are published
        on behalf of Division F of the International Astronomical Union by the
              Minor Planet Center, Smithsonian Astrophysical Observatory,
                              Cambridge, MA 02138, U.S.A.
    
                 Prepared using the Tamkin Foundation Computer Network
    
                                  MPC@CFA.HARVARD.EDU
                URL https://www.minorplanetcenter.net/    ISSN 1523-6714
    
                                   2014 SS303                                
    
    Additional Observations:
         K14SU3S  C2013 08 09.44573 22 45 10.240-11 41 01.64         22.0 GVEM096F51
         K14SU3S  C2013 08 09.45998 22 45 10.001-11 41 03.44         22.0 GVEM096F51
         K14SU3S  C2013 08 09.47423 22 45 09.759-11 41 05.22         22.2 GVEM096F51
         K14SU3S  C2013 08 09.48847 22 45 09.517-11 41 06.95         22.2 GVEM096F51
         K14SU3S  C2013 08 26.47587 22 39 55.319-12 17 47.25         21.8 GVEM096F51
         K14SU3S  C2013 08 26.48690 22 39 55.088-12 17 48.45         22.4 GVEM096F51
         K14SU3S  C2013 08 26.50239 22 39 54.793-12 17 50.71         22.2 GVEM096F51
         K14SU3S  C2013 08 26.51470 22 39 54.547-12 17 52.23         22.8 GVEM096F51
         K14SU3S KC2013 08 30.44352 22 38 36.529-12 26 22.11         21.1 GVEM096F51
         K14SU3S  C2013 10 06.31120 22 27 58.963-13 27 19.17         22.0 GVEM096F51
         K14SU3S  C2013 10 06.33969 22 27 58.629-13 27 20.81         22.7 GVEM096F51
         K14SU3S  C2013 10 06.35396 22 27 58.463-13 27 21.25         22.0 GVEM096F51
         K14SU3S  C2014 07 27.55802 00 30 21.648-01 04 26.73         21.9 GVEM096F51
         K14SU3S  C2014 07 27.56885 00 30 21.666-01 04 27.23         22.4 GVEM096F51
         K14SU3S  C2014 07 27.57963 00 30 21.671-01 04 27.59         22.2 GVEM096F51
         K14SU3S  C2014 07 27.59039 00 30 21.705-01 04 27.68         22.1 GVEM096F51
         K14SU3S  C2014 08 20.52719 00 28 22.376-01 31 42.50         21.7 GVEM096F51
         K14SU3S  C2014 08 20.53943 00 28 22.276-01 31 43.90         22.5 GVEM096F51
         K14SU3S  C2014 08 20.55167 00 28 22.095-01 31 44.25         22.4 GVEM096F51
         K14SU3S  C2014 08 20.56391 00 28 21.972-01 31 46.07         21.9 GVEM096F51
         K14SU3S  C2014 08 27.48171 00 26 58.263-01 44 09.93         22.2 GVEM096F51
         K14SU3S  C2014 08 27.49309 00 26 58.103-01 44 11.13         21.8 GVEM096F51
         K14SU3S  C2014 08 27.50452 00 26 57.941-01 44 12.48         22.0 GVEM096F51
         K14SU3S  C2014 08 27.51593 00 26 57.775-01 44 13.93         22.4 GVEM096F51
         K14SU3S  C2014 08 30.53317 00 26 15.280-01 50 06.58         21.6 GVEM096F51
         K14SU3S KC2014 09 13.50431 00 22 22.080-02 19 54.53         22.0 GVEM096F51
         K14SU3S  C2014 09 22.41668 00 19 31.467-02 39 52.79         21.7 GVEM096F51
         K14SU3S  C2014 09 22.42865 00 19 31.233-02 39 54.45         21.2 GVEM096F51
         K14SU3S  C2014 09 22.44065 00 19 30.976-02 39 56.11         21.5 GVEM096F51
         K14SU3S  C2014 10 28.36945 00 08 42.393-03 44 25.82         22.0 GVEM096F51
         K14SU3S  C2014 11 12.26255 00 06 06.595-03 54 22.81         23.0 GVEM096F51
         K14SU3S  C2014 11 23.25615 00 05 19.868-03 53 19.02         22.0 GVEM096F51
         K14SU3S  C2014 11 23.26902 00 05 19.840-03 53 18.88         22.2 GVEM096F51
         K14SU3S  C2014 11 23.28187 00 05 19.812-03 53 18.41         22.5 GVEM096F51
         K14SU3S  C2015 10 16.38809 01 56 06.414+07 21 02.34         21.6 GVEM096F51
         K14SU3S  C2015 10 18.40934 01 55 25.260+07 17 17.91         21.5 GVEM096F51
         K14SU3S  C2015 10 18.42051 01 55 25.026+07 17 16.54         22.1 GVEM096F51
         K14SU3S  C2015 10 18.43172 01 55 24.786+07 17 15.48         22.2 GVEM096F51
         K14SU3S  C2015 10 18.44293 01 55 24.554+07 17 14.18         22.9 GVEM096F51
         K14SU3S  C2015 10 19.38396 01 55 05.333+07 15 30.32         22.0 GVEM096F51
         K14SU3S  C2015 10 19.39536 01 55 05.105+07 15 29.00         21.9 GVEM096F51
         K14SU3S  C2015 10 19.40680 01 55 04.845+07 15 27.85         21.9 GVEM096F51
         K14SU3S  C2015 10 19.41832 01 55 04.609+07 15 26.56         22.3 GVEM096F51
         K14SU3S  C2015 11 02.41426 01 50 19.155+06 51 00.60         22.0 GVEM096F51
         K14SU3S  C2015 11 02.42611 01 50 18.938+06 50 59.68         22.4 GVEM096F51
         K14SU3S  C2015 11 02.43790 01 50 18.700+06 50 58.34         21.9 GVEM096F51
         K14SU3S  C2015 11 02.44972 01 50 18.433+06 50 57.22         22.1 GVEM096F51
         K14SU3S  C2015 11 03.32958 01 50 01.090+06 49 32.66         22.1 GVEM096F51
         K14SU3S  C2015 11 03.34266 01 50 00.820+06 49 31.65         22.2 GVEM096F51
         K14SU3S  C2015 11 03.35577 01 50 00.553+06 49 30.16         22.1 GVEM096F51
         K14SU3S  C2015 11 03.36898 01 50 00.290+06 49 29.15         22.0 GVEM096F51
         K14SU3S  C2015 11 28.35487 01 43 07.591+06 20 35.59         21.2 GVEM096F51
         K14SU3S  C2015 12 07.26053 01 41 36.864+06 16 55.49         22.2 GVEM096F51
         K14SU3S  C2015 12 07.27246 01 41 36.748+06 16 55.35         22.0 GVEM096F51
         K14SU3S  C2015 12 07.28441 01 41 36.668+06 16 55.16         22.8 GVEM096F51
         K14SU3S  C2015 12 07.29632 01 41 36.582+06 16 55.19         22.0 GVEM096F51
         K14SU3S  C2016 01 01.23706 01 40 53.429+06 28 35.89         22.7 GVEM096F51
         K14SU3S  C2016 01 01.23773 01 40 53.434+06 28 35.94         23.1 GVEM096F51
         K14SU3S  C2016 01 01.24831 01 40 53.489+06 28 36.63         22.6 GVEM096F51
         K14SU3S  C2016 01 01.24897 01 40 53.486+06 28 36.57         22.6 GVEM096F51
         K14SU3S  C2016 01 01.25950 01 40 53.537+06 28 37.33         22.3 GVEM096F51
         K14SU3S  C2016 01 01.26015 01 40 53.531+06 28 37.36         22.1 GVEM096F51
         K14SU3S  C2016 01 01.27066 01 40 53.576+06 28 38.13         22.5 GVEM096F51
         K14SU3S  C2016 01 01.27130 01 40 53.580+06 28 38.24         22.6 GVEM096F51
         K14SU3S  C2016 01 29.25467 01 46 27.412+07 17 57.41         23.1 GVEM096F51
         K14SU3S  C2016 01 29.26131 01 46 27.541+07 17 58.19         22.7 GVEM096F51
         K14SU3S  C2016 01 29.26799 01 46 27.643+07 17 59.21         22.7 GVEM096F51
         K14SU3S  C2016 01 29.27466 01 46 27.775+07 18 00.56         23.0 GVEM096F51
    
    Observer details:
    F51 Pan-STARRS 1, Haleakala.  Observers J. Bulger, K. Chambers, B. Gibson,
        T. Goggia, T. Lowe, E. Magnier, N. Primak, A. Schultz, J. Thiel, S. Watters,
        M. Willman.  Measurers S. Chastel, M. Huber, R. Jedicke, R. Wainscoat,
        R. Weryk.  1.8-m Ritchey-Chretien + CCD.
    
    First and last observations above in comparison with prediction:
    Residuals in seconds of arc, reference and Delta-T
    130809 F51 58.5+ 20.1+    160129 F51 41.5+ 19.0+    MPO332544   -2.87 days
    
    Orbital elements:
    2014 SS303
    Epoch 2019 Apr. 27.0 TT = JDT 2458600.5                 MPC
    M  35.73735              (2000.0)            P               Q
    n   0.02065327     Peri.  256.41532     +0.99780333     +0.01469797
    a  13.1565942      Node   102.71371     +0.01122592     +0.92345879
    e   0.4869613      Incl.    3.79680     -0.06528771     +0.38341601
    P  47.72           H   13.9           G   0.15           U   0
    Residuals in seconds of arc
    130809 F51  0.0   0.0     140920 F51  0.0   0.0     151019 F51  0.1-  0.1+
    130809 F51  0.1+  0.1-    140920 F51  0.1+  0.3+    151019 F51  0.0   0.1+
    130809 F51  0.1+  0.1-    140922 F51  0.0   0.0     151102 F51  0.2-  0.1-
    130809 F51  0.2+  0.0     140922 F51  0.1+  0.1-    151102 F51  0.2+  0.1+
    130826 F51  0.2-  0.1-    140922 F51  0.1-  0.1-    151102 F51  0.2+  0.1-
    130826 F51  0.3-  0.1+    140923 H21  0.2-  0.3+    151102 F51  0.2-  0.1-
    130826 F51  0.0   0.1-    140923 H21  0.0   0.4+    151103 F51  0.0   0.1-
    130826 F51  0.0   0.0     140923 H21  0.2-  0.4+    151103 F51  0.1-  0.2+
    130830 F51  0.1-  0.1+    140930 291  0.5-  0.0     151103 F51  0.1-  0.1-
    131006 F51  0.2-  0.0     140930 291  0.3+  0.1+    151103 F51  0.1-  0.2+
    131006 F51  0.1+  0.1-    141022 G37  0.1-  0.2+    151128 F51  0.1+  0.0
    131006 F51  0.3+  0.3+    141022 G37  0.2-  0.1+    151207 F51  0.1-  0.0
    140727 F51  0.0   0.1+    141028 F51  0.1-  0.2-    151207 F51  0.2-  0.0
    140727 F51  0.2+  0.1-    141112 F51  0.0   0.1-    151207 F51  0.1+  0.1-
    140727 F51  0.2+  0.1-    141123 F51  0.1+  0.0     151207 F51  0.4+  0.1+
    140727 F51  0.6+  0.2+    141123 F51  0.0   0.2-    160101 F51  0.1-  0.0
    140820 F51  0.1-  0.1-    141123 F51  0.0   0.1-    160101 F51  0.1-  0.0
    140820 F51  0.4+  0.3-    150122 G37  0.5+  0.3-    160101 F51  0.1+  0.0
    140820 F51  0.2-  0.6+    150122 G37  0.3+  0.0     160101 F51  0.0   0.1-
    140820 F51  0.0   0.0     150122 G37  0.1+  0.2-    160101 F51  0.1+  0.1-
    140827 F51  0.0   0.2-    151016 F51  0.1-  0.1+    160101 F51  0.0   0.1-
    140827 F51  0.0   0.1-    151018 F51  0.0   0.0     160101 F51  0.1-  0.0
    140827 F51  0.0   0.1-    151018 F51  0.0   0.2-    160101 F51  0.0   0.0
    140827 F51  0.1-  0.2-    151018 F51  0.1-  0.0     160129 F51  0.1+  0.1+
    140830 F51  0.9-  0.2+    151018 F51  0.0   0.1-    160129 F51  0.3+  0.1-
    140913 F51  0.2+  0.1-    151019 F51  0.0   0.1+    160129 F51  0.0   0.0
    140920 F51  0.1-  0.1+    151019 F51  0.2+  0.0     160129 F51  0.1+  0.4+
    
    Ephemeris:
    2014 SS303               a,e,i = 13.16, 0.49, 4                  q = 6.7498
    Date    TT    R. A. (2000) Decl.     Delta      r    Elong.  Phase     V
    2019 05 30    05 47 40.4 +22 35 18  10.9798 10.0275    19.1     1.9    24.3
    ...
    2019 06 14    05 55 04.7 +22 38 42  11.0756 10.0672     6.5     0.7    24.3
    ...
    2019 06 22    05 59 04.3 +22 39 52  11.1045 10.0883     0.8     0.1    24.2
    ...
    2019 06 28    06 02 03.5 +22 40 27  11.1159 10.1042     5.4     0.5    24.3
    2019 06 29    06 02 33.3 +22 40 31  11.1170 10.1069     6.2     0.6    24.3
    2019 06 30    06 03 03.0 +22 40 35  11.1178 10.1095     7.0     0.7    24.3
    ...
    2019 07 06    06 06 00.1 +22 40 51  11.1175 10.1254    12.1     1.2    24.3
    ...
    2019 07 14    06 09 51.7 +22 40 49  11.1037 10.1465    18.8     1.8    24.4
    ...
    2019 07 29    06 16 45.3 +22 39 48  11.0382 10.1862    31.5     3.0    24.5
    
    A. U. Tomatic                (C) Copyright 2019 MPC           M.P.E.C. 2019-M96
    


    Read MPEC 2019-M95 Read MPEC 2019-M97


    MPEC number:

    Enter an MPEC number in one of the following forms:

    • 1997-B01 (the full form)
    • J97B01 (the packed version of the full form)
    • B01 (the abbreviated form)